This is the latest recevied weather packets stored in our database for station/object KW6V-15. If no packets are shown the sender has not sent any weather packets the latest 10 day(s).
| Time | Temp. | Humidity | Pressure | Rain* | Wind** | Luminosity | Snow |
|---|---|---|---|---|---|---|---|
| 1777874419 | 11.11° C | 89% | 1015.2 hPa | 0 mm | - | - | - |
| 1777872638 | 11.67° C | 89% | 1015.5 hPa | 0 mm | - | - | - |
| 1777870835 | 11.67° C | 89% | 1015.1 hPa | 0 mm | - | - | - |
| 1777869073 | 11.67° C | 88% | 1014.8 hPa | 0 mm | - | - | - |
| 1777867253 | 11.67° C | 88% | 1014.5 hPa | 0 mm | - | - | - |
| 1777865444 | 11.67° C | 88% | 1014.1 hPa | 0 mm | - | - | - |
| 1777863641 | 11.67° C | 87% | 1013.8 hPa | 0 mm | - | - | - |
| 1777861826 | 11.67° C | 87% | 1013.8 hPa | 0 mm | - | - | - |
| 1777860034 | 11.67° C | 87% | 1013.7 hPa | 0 mm | - | - | - |
| 1777858219 | 12.22° C | 86% | 1013.6 hPa | 0 mm | - | - | - |
| 1777856434 | 12.22° C | 85% | 1013.5 hPa | 0 mm | - | - | - |
| 1777854654 | 12.22° C | 85% | 1013.5 hPa | 0 mm | - | - | - |
| 1777852882 | 12.78° C | 85% | 1013.2 hPa | 0 mm | - | - | - |
| 1777851026 | 12.78° C | 83% | 1013.1 hPa | 0 mm | - | - | - |
| 1777849246 | 13.33° C | 81% | 1012.8 hPa | 0 mm | - | - | - |
| 1777847440 | 13.33° C | 80% | 1012.8 hPa | 0 mm | - | - | - |
| 1777845615 | 13.89° C | 81% | 1012.8 hPa | 0 mm | - | - | - |
| 1777843832 | 14.44° C | 81% | 1012.5 hPa | 0 mm | - | - | - |
| 1777842029 | 13.89° C | 81% | 1012.8 hPa | 0 mm | - | - | - |
| 1777840271 | 13.89° C | 82% | 1013 hPa | 0 mm | - | - | - |
| 1777838435 | 13.33° C | 82% | 1013.2 hPa | 0 mm | - | - | - |
| 1777836636 | 13.33° C | 83% | 1013 hPa | 0 mm | - | - | - |
| 1777834895 | 12.78° C | 84% | 1013 hPa | 0 mm | - | - | - |
| 1777833025 | 12.78° C | 83% | 1012.9 hPa | 0 mm | - | - | - |
| 1777831238 | 12.78° C | 85% | 1012.9 hPa | 0 mm | - | - | - |
* Rain latest hour (hover to see other rain measurements)
** Current wind speed in m/s (hover to see current wind gust speed)